DateTimeUTC,F1_A11,F1_S11,BsB_S11,BsG_S11,BsR_S11,BbsB_S11,BbsG_S11,BbsR_S11,BaB_A11,BaG_A11,BaR_A11,Tu_S11,T_S11,Uu_S11,U_S11,P_S11,T1_A11
2021-02-21T19:00:00Z,00000200,21000000,,,,,,,0000.04,0000.04,-000.20,17.2,24.4,,00.0,0633.2,31.0
2021-02-21T19:01:00Z,00000200,21000000,,,,,,,-000.10,0000.15,0000.23,17.2,24.4,,00.0,0633.2,31.0
2021-02-21T19:02:00Z,00000200,21000000,,,,,,,-000.01,0000.00,-000.04,17.2,24.4,,00.0,0633.2,31.0
2021-02-21T19:03:00Z,00000200,61000000,,,,,,,0000.23,0000.10,0000.44,17.2,24.4,,00.0,0633.2,31.0
2021-02-21T19:04:00Z,00000200,41000000,0000.34,0000.21,0000.03,0000.11,0000.02,-000.13,0000.35,0000.07,-000.24,17.4,24.3,,00.0,0634.0,31.0
2021-02-21T19:05:00Z,00000200,01000000,-000.20,-000.24,-000.02,-000.22,-000.10,0000.06,-000.09,0000.03,-000.09,17.5,24.2,,00.0,0634.1,31.0
2021-02-21T19:06:00Z,00000200,01000000,0000.06,0000.10,-000.13,-000.07,0000.18,-000.08,-000.21,0000.18,-000.21,17.5,24.2,,00.0,0634.1,31.0
2021-02-21T19:07:00Z,00000200,01000000,0000.16,0000.14,0000.16,-000.10,0000.14,0000.15,0000.53,-000.32,0000.28,17.5,24.2,,00.0,0634.1,31.0
2021-02-21T19:08:00Z,00000200,01000000,-000.42,0000.05,0000.20,-000.00,-000.20,-000.05,-000.53,0000.22,0000.22,17.5,24.2,,00.0,0634.2,31.0
2021-02-21T19:09:00Z,00000200,01000000,0000.46,0000.28,0000.04,0000.57,0000.13,-000.16,0000.16,-000.01,-000.10,17.5,24.2,,00.0,0634.2,31.0
2021-02-21T19:10:00Z,00000200,01000000,0000.14,0000.29,0000.19,-000.15,-000.03,0000.09,-000.05,0000.56,-000.03,17.4,24.2,,00.0,0634.2,31.0
2021-02-21T19:11:00Z,00000200,01000000,-000.05,0000.16,-000.13,0000.19,0000.07,-000.20,0000.12,-000.34,-000.01,17.4,24.2,,00.0,0634.3,31.0
2021-02-21T19:12:00Z,00000200,01000000,-000.19,0000.20,-000.17,-000.08,-000.07,-000.08,0000.07,-000.14,-000.21,17.4,24.1,,00.0,0634.3,31.0
2021-02-21T19:13:00Z,00000200,01000000,-000.38,0000.16,0000.18,-000.27,0000.11,-000.13,0000.13,0000.09,0000.22,17.4,24.1,,00.0,0634.3,31.0
2021-02-21T19:14:00Z,00000200,01000000,0000.33,0000.33,0000.18,-000.04,0000.17,-000.07,-000.11,-000.38,0000.13,17.4,24.1,,00.0,0634.3,31.0
2021-02-21T19:15:00Z,00000200,01000000,0000.34,0000.19,-000.25,0000.12,0000.08,-000.05,-000.09,0000.08,-000.30,17.4,24.1,,00.0,0634.4,31.0
2021-02-21T19:16:00Z,00000200,01000000,-000.27,0000.14,0000.05,-000.11,0000.01,-000.14,0000.07,0000.27,0000.22,17.4,24.1,,00.0,0634.4,31.0
2021-02-21T19:17:00Z,00000200,01000000,-000.47,-000.06,0000.19,0000.07,0000.05,-000.05,0000.18,0000.41,0000.25,17.5,24.1,,00.0,0634.4,31.0
2021-02-21T19:18:00Z,00000200,01000000,0000.29,0000.17,-000.16,-000.25,0000.15,0000.19,0000.10,-000.27,-000.18,17.5,24.1,,00.0,0634.4,31.0
2021-02-21T19:19:00Z,00000200,01000000,-000.42,0000.29,0000.05,0000.20,0000.16,0000.03,-000.03,0000.28,0000.09,17.5,24.2,,00.0,0634.4,31.0
2021-02-21T19:20:00Z,00000200,01000000,-000.23,-000.16,-000.05,0000.00,-000.10,-000.08,0000.10,-000.22,-000.16,17.5,24.2,,00.0,0634.4,31.0
2021-02-21T19:21:00Z,00000200,01000000,0000.28,0000.26,-000.05,-000.12,-000.06,-000.13,-000.03,-000.25,-000.13,17.5,24.2,,00.0,0634.4,31.0
2021-02-21T19:22:00Z,00000200,01000000,-000.05,0000.30,-000.09,0000.18,-000.05,0000.10,0000.18,0000.29,0000.28,17.5,24.2,,00.0,0634.4,31.0
2021-02-21T19:23:00Z,00000200,01000000,0000.04,0000.06,0000.36,-000.34,0000.13,0000.12,0000.15,0000.07,0000.05,17.5,24.2,,00.0,0634.4,31.0
2021-02-21T19:24:00Z,00000200,01000000,-000.05,0000.06,0000.01,-000.09,0000.06,0000.04,-000.19,0000.14,0000.12,17.5,24.2,,00.0,0634.4,31.0
2021-02-21T19:25:00Z,00000200,01000000,0000.21,-000.12,0000.19,-000.02,0000.04,0000.18,0000.10,-000.02,0000.06,17.5,24.2,,00.0,0634.4,31.0
2021-02-21T19:26:00Z,00000200,01000000,-000.16,-000.04,0000.07,0000.49,-000.03,0000.21,0000.09,-000.02,0000.13,17.5,24.1,,00.0,0634.4,31.0
2021-02-21T19:27:00Z,00000200,01000000,0000.23,0000.12,0000.06,-000.16,0000.25,0000.21,0000.08,-000.14,-000.17,17.4,24.1,,00.0,0634.4,31.0
2021-02-21T19:28:00Z,00000200,01000000,0000.54,0000.17,0000.21,0000.19,-000.01,0000.02,-000.40,0000.30,0000.10,17.4,24.1,,00.0,0634.4,31.0
2021-02-21T19:29:00Z,00000200,01000000,-000.02,0000.14,0000.08,0000.16,-000.06,-000.05,0000.17,-000.04,-000.30,17.4,24.1,,00.0,0634.5,31.0
2021-02-21T19:30:00Z,00000200,01000000,-000.49,0000.11,0000.25,0000.01,-000.22,-000.04,-000.17,-000.05,0000.25,17.4,24.1,,00.0,0634.6,31.0
2021-02-21T19:31:00Z,00000200,01000000,0000.01,-000.08,0000.07,0000.18,-000.16,0000.25,0000.26,-000.21,0000.09,17.4,24.1,00.0,00.0,0634.6,31.0
2021-02-21T19:32:00Z,00000200,01000000,-000.23,0000.12,0000.04,-000.18,0000.04,-000.09,0000.01,0000.25,0000.04,17.5,24.1,,00.0,0634.6,31.0
2021-02-21T19:33:00Z,00000200,01000000,0000.32,-000.13,0000.25,0000.38,0000.03,0000.20,-000.04,0000.01,-000.20,17.5,24.2,,00.0,0634.6,31.0
2021-02-21T19:34:00Z,00000200,01000000,-000.12,-000.05,0000.15,0000.03,-000.05,0000.02,0000.30,-000.03,0000.09,17.5,24.2,,00.0,0634.6,31.0
2021-02-21T19:35:00Z,00000200,01000000,0000.01,0000.05,0000.04,0000.58,-000.24,0000.10,-000.19,0000.34,0000.23,17.6,24.2,,00.0,0634.6,31.0
2021-02-21T19:36:00Z,00000200,01000000,0000.49,0000.07,0000.02,-000.41,-000.02,0000.12,0000.22,-000.34,-000.13,17.5,24.2,,00.0,0634.6,31.0
2021-02-21T19:37:00Z,00000200,01000000,0000.48,0000.10,0000.07,-000.23,-000.24,0000.11,-000.06,-000.12,0000.09,17.5,24.2,,00.0,0634.7,31.0
2021-02-21T19:38:00Z,00000200,01000000,0000.03,0000.29,-000.05,0000.43,-000.16,-000.00,-000.32,0000.22,-000.49,17.5,24.2,,00.0,0634.6,31.0
2021-02-21T19:39:00Z,00000200,01000000,-000.05,-000.13,0000.07,-000.07,-000.15,-000.05,0000.00,0000.15,0000.54,17.5,24.2,,00.0,0634.7,31.0
2021-02-21T19:40:00Z,00000200,01000000,-000.43,0000.09,-000.04,-000.07,-000.12,0000.05,0000.09,-000.14,-000.47,17.5,24.2,,00.0,0634.7,31.0
2021-02-21T19:41:00Z,00000200,01000000,-000.33,0000.08,0000.14,-000.02,0000.07,0000.17,0000.00,0000.42,0000.31,17.5,24.2,,00.0,0634.7,31.0
2021-02-21T19:42:00Z,00000200,01000000,-000.21,-000.18,0000.18,-000.34,-000.03,-000.16,0000.09,-000.45,-000.15,17.5,24.2,,00.0,0634.7,31.0
2021-02-21T19:43:00Z,00000200,01000000,-000.21,0000.33,0000.17,0000.06,-000.14,0000.09,0000.08,0000.04,0000.19,17.5,24.2,,00.0,0634.7,31.0
2021-02-21T19:44:00Z,00000200,01000000,-000.54,0000.12,-000.02,-000.07,-000.04,-000.05,-000.04,0000.42,0000.11,17.5,24.1,,00.0,0634.7,31.0
2021-02-21T19:45:00Z,00000200,01000000,-000.07,0000.17,-000.10,-000.10,0000.02,-000.03,0000.39,-000.00,-000.04,17.4,24.1,,00.0,0634.8,31.0
2021-02-21T19:46:00Z,00000200,01000000,0000.05,0000.36,0000.17,0000.05,-000.04,0000.08,-000.36,0000.12,-000.10,17.4,24.1,,00.0,0634.8,31.0
2021-02-21T19:47:00Z,00000200,01000000,-000.72,0000.09,0000.24,0000.15,0000.22,0000.10,0000.41,-000.42,-000.09,17.4,24.2,,00.0,0634.9,31.0
2021-02-21T19:48:00Z,00000200,01000000,-000.02,0000.17,-000.01,0000.55,-000.03,-000.17,-000.00,0000.06,0000.24,17.4,24.1,,00.0,0634.8,31.0
2021-02-21T19:49:00Z,00000200,01000000,-000.06,0000.16,0000.24,0000.02,-000.02,0000.01,-000.18,-000.01,-000.11,17.4,24.1,,00.0,0634.8,31.0
2021-02-21T19:50:00Z,00000200,01000000,-000.39,0000.02,0000.26,0000.04,-000.11,0000.24,0000.16,-000.11,0000.10,17.4,24.1,,00.0,0634.8,31.0
2021-02-21T19:51:00Z,00000200,01000000,-000.23,-000.22,0000.14,0000.04,-000.19,-000.05,-000.01,0000.36,0000.29,17.4,24.1,,00.0,0634.8,31.0
2021-02-21T19:52:00Z,00000200,01000000,0000.14,0000.14,0000.08,-000.03,-000.03,-000.28,0000.04,0000.03,0000.04,17.4,24.1,,00.0,0634.8,31.0
2021-02-21T19:53:00Z,00000200,01000000,-000.06,0000.34,0000.01,-000.27,0000.06,0000.35,-000.11,-000.27,-000.05,17.4,24.1,,00.0,0634.8,31.0
2021-02-21T19:54:00Z,00000200,01000000,0000.00,0000.28,0000.47,-000.01,-000.02,0000.40,0000.14,0000.16,0000.16,17.4,24.1,,00.0,0634.8,31.0
2021-02-21T19:55:00Z,00000200,01000000,-000.46,-000.08,0000.10,0000.12,0000.05,0000.30,-000.09,-000.09,-000.37,17.4,24.1,,00.0,0634.9,31.0
2021-02-21T19:56:00Z,00000200,01000000,0000.02,0000.29,0000.31,0000.12,0000.04,0000.14,0000.07,0000.28,-000.03,17.4,24.1,,00.0,0634.9,31.0
2021-02-21T19:57:00Z,00000200,41000000,,,,,,,0000.28,-000.30,0000.02,17.4,24.1,,00.0,0634.8,31.0
2021-02-21T19:58:00Z,00000200,61000000,,,,,,,-000.33,-000.04,-000.04,17.1,24.2,,00.0,0634.0,31.0
2021-02-21T19:59:00Z,00000200,21000000,,,,,,,-000.29,-000.01,-000.00,17.0,24.3,,00.0,0633.9,31.0
